Tracking 29967 objects as of 5-Dec-2024
HD Live streaming from Space Station
objects crossing your sky now

STARLINK-4191

Track STARLINK-4191 now!
10-day predictions
STARLINK-4191 is classified as:


NORAD ID: 52860
Int'l Code: 2022-062AG
Perigee: 545.7 km
Apogee: 548.1 km
Inclination: 53.2 °
Period: 95.4 minutes
Semi major axis: 6917 km
RCS: Unknown
Launch date: June 17, 2022
Source: United States (US)
Launch site: AIR FORCE EASTERN TEST RANGE (AFETR)
Your satellite tracking list
Your tracking list is empty




NASA's NSSDC Master Catalog

Two Line Element Set (TLE):
1 52860U 22062AG  24339.58125903  .00007310  00000-0  47702-3 0  9991
2 52860  53.2181 289.6248 0001722  78.3608 281.7577 15.08829754136956
Source of the keplerian elements: AFSPC